TimeCDT,TemperatureF,Dew PointF,Humidity,Sea Level PressureIn,VisibilityMPH,Wind Direction,Wind SpeedMPH,Gust SpeedMPH,PrecipitationIn,Events,Conditions,WindDirDegrees,DateUTC
12:53 AM,62.1,50.0,65,29.45,10.0,South,9.2,-,N/A,,Clear,190,2012-10-17 05:53:00
1:53 AM,57.9,48.9,72,29.45,10.0,South,9.2,-,N/A,,Clear,180,2012-10-17 06:53:00
2:53 AM,59.0,48.9,69,29.44,10.0,South,11.5,-,N/A,,Clear,180,2012-10-17 07:53:00
3:53 AM,60.1,48.0,64,29.42,10.0,South,10.4,-,N/A,,Clear,190,2012-10-17 08:53:00
4:53 AM,60.1,48.0,64,29.41,10.0,South,10.4,-,N/A,,Clear,180,2012-10-17 09:53:00
5:53 AM,61.0,48.9,64,29.39,10.0,South,13.8,-,N/A,,Clear,190,2012-10-17 10:53:00
6:53 AM,61.0,50.0,67,29.39,10.0,SSW,13.8,-,N/A,,Clear,200,2012-10-17 11:53:00
7:53 AM,60.1,51.1,72,29.40,10.0,SSW,11.5,-,0.00,Rain,Light Rain,200,2012-10-17 12:53:00
8:53 AM,60.1,53.1,78,29.40,10.0,SSW,9.2,-,0.01,Rain,Light Rain,210,2012-10-17 13:53:00
9:53 AM,62.1,54.0,75,29.39,10.0,SSW,13.8,-,0.00,,Partly Cloudy,210,2012-10-17 14:53:00
10:53 AM,64.0,54.0,70,29.41,10.0,SW,12.7,-,N/A,,Partly Cloudy,230,2012-10-17 15:53:00
11:34 AM,64.4,53.6,68,29.43,10.0,WSW,15.0,-,N/A,,Overcast,240,2012-10-17 16:34:00
11:50 AM,64.4,53.6,68,29.43,10.0,WSW,12.7,-,N/A,,Overcast,250,2012-10-17 16:50:00
11:53 AM,64.0,53.1,67,29.42,10.0,WSW,16.1,-,N/A,,Overcast,250,2012-10-17 16:53:00
12:53 PM,63.0,50.0,63,29.42,10.0,WNW,9.2,19.6,0.00,,Overcast,290,2012-10-17 17:53:00
1:53 PM,57.9,53.1,84,29.39,10.0,WNW,12.7,-,0.00,,Mostly Cloudy,290,2012-10-17 18:53:00
2:12 PM,57.2,51.8,82,29.40,10.0,WNW,12.7,-,0.00,Rain,Light Rain,300,2012-10-17 19:12:00
2:28 PM,55.4,51.8,88,29.40,8.0,WNW,12.7,-,0.02,Rain,Light Rain,300,2012-10-17 19:28:00
2:53 PM,55.9,53.1,90,29.41,10.0,West,5.8,-,0.04,Rain,Light Rain,280,2012-10-17 19:53:00
3:32 PM,53.6,51.8,94,29.40,9.0,NW,9.2,-,0.05,Rain,Light Rain,310,2012-10-17 20:32:00
3:53 PM,54.0,51.1,90,29.41,10.0,West,6.9,-,0.05,,Overcast,280,2012-10-17 20:53:00
4:53 PM,55.0,51.1,86,29.43,10.0,West,8.1,-,0.02,,Overcast,260,2012-10-17 21:53:00
5:53 PM,54.0,50.0,86,29.44,10.0,WSW,6.9,-,N/A,,Partly Cloudy,240,2012-10-17 22:53:00
6:53 PM,53.1,44.1,71,29.46,10.0,WNW,9.2,-,N/A,,Overcast,290,2012-10-17 23:53:00
7:53 PM,53.1,37.9,57,29.48,10.0,WNW,17.3,29.9,N/A,,Overcast,300,2012-10-18 00:53:00
8:53 PM,51.1,37.9,61,29.47,10.0,West,12.7,-,N/A,,Scattered Clouds,280,2012-10-18 01:53:00
9:53 PM,50.0,36.0,59,29.47,10.0,WNW,17.3,25.3,N/A,,Scattered Clouds,300,2012-10-18 02:53:00
10:53 PM,48.9,36.0,61,29.47,10.0,West,10.4,-,N/A,,Scattered Clouds,280,2012-10-18 03:53:00
11:53 PM,48.9,33.1,54,29.47,10.0,West,13.8,20.7,N/A,,Clear,280,2012-10-18 04:53:00